Location: Eckley
(40.9930°N, 75.8630°W)
Time: 20:15:10
(UTC-04:00)

Daily predictions for brighter satellites

Satellite Brightness Start Highest point End
(mag) Time Altitude Azimuth Time Altitude Azimuth Time Altitude Azimuth
Cosmos 1809 Rocket 4.5 18:41:54 10° S 18:47:58 84° E 18:54:05 10° N
Cosmos-2242 2.9 18:44:27 10° S 18:48:42 76° E 18:52:58 10° N
Cosmos 1624 Rocket 4.1 18:43:49 10° NNW 18:48:59 58° ENE 18:54:07 10° SSE
IRS-1A Rocket 4.4 18:43:13 10° SSE 18:49:03 88° ENE 18:55:00 10° NNW
Cosmos 1400 Rocket 3.6 18:45:38 10° NNE 18:49:14 29° ENE 18:52:44 10° SE
Cosmos 1371 Rocket 4.0 18:45:54 10° NNW 18:51:18 74° ENE 18:56:39 10° SSE
FALCON 9 R/B 3.3 18:51:11 10° SSW 18:51:30 10° S 18:51:49 10° S
BREEZE-M DEB (TANK) 4.3 18:35:42 10° WSW 18:53:17 73° NNW 18:58:00 10° ENE
SL-16 R/B 2.2 18:49:11 10° NNW 18:54:53 76° ENE 19:00:33 10° SSE
SKYMED 2 3.7 18:50:46 10° NNE 18:55:01 52° E 18:59:15 10° S
Tiangong 1 1.7 18:53:12 10° W 18:55:48 42° SSW 18:58:22 10° SE
ERS-2 2.7 18:53:50 10° S 18:57:29 63° WSW 19:01:10 10° NNW
Meteor 1-28 Rocket 3.5 18:53:58 10° N 18:57:46 73° WNW 19:01:31 10° SSW
Cosmos 1743 Rocket 3.8 18:57:20 10° N 19:01:34 46° E 19:05:48 10° SSE
Cosmos 1766 Rocket 4.0 19:00:01 10° NNW 19:04:27 67° W 19:08:52 10° S
Cosmos 2151 3.4 19:01:04 10° N 19:05:05 38° ENE 19:09:04 10° SSE
Cosmos 1842 Rocket 3.8 19:04:18 10° SSE 19:08:37 50° E 19:12:57 10° NNE
SL-14 R/B 4.2 19:05:58 10° NNW 19:09:42 52° W 19:13:27 10° S
H-2A R/B 4.1 19:08:28 10° ESE 19:11:24 21° ENE 19:14:22 10° NNE
Cosmos 2366 rocket 3.9 19:07:22 10° S 19:13:36 80° E 19:19:48 10° N
Cosmos 2221 3.3 19:16:50 10° SSE 19:20:31 29° E 19:24:15 10° NNE
ISS -1.8 19:20:20 10° WNW 19:23:12 28° SW 19:26:03 10° SSE
Cosmos 1500 Rocket 3.5 19:19:40 10° N 19:24:01 63° E 19:28:17 10° SSE
METEOR-M 4.3 19:18:57 10° S 19:24:17 77° WSW 19:29:40 10° NNW
FREGAT/IRIS 3.6 19:23:44 23° E 19:24:34 26° ENE 19:27:09 10° NNE
SPOT 3 Rocket 3.6 19:20:43 10° SSE 19:25:53 84° WSW 19:31:09 10° NNW
Cosmos 1315 Rocket 3.1 19:26:16 10° N 19:30:10 43° ENE 19:34:04 10° SSE
Cosmos 921 Rocket 3.4 19:27:17 10° N 19:31:32 41° ENE 19:34:56 14° SE
COSMOS 2428 3.6 19:26:54 10° N 19:31:50 29° NE 19:34:16 21° E
Cosmos 2333 Rocket 3.7 19:31:18 10° N 19:35:08 18° NE 19:36:00 17° ENE
NOSS 3 (A) 4.3 19:32:59 10° SSW 19:35:42 66° ESE 19:36:59 29° NE
Cosmos 2056 Rocket 4.2 19:31:11 10° NNW 19:36:23 56° WSW 19:41:30 10° S
DMSP B5D1-3 4.5 19:31:40 10° NNE 19:36:49 85° ESE 19:41:57 10° SSW
Cosmos 1833 4.1 19:32:50 10° SSW 19:38:33 80° ESE 19:44:12 10° NNE
Cosmos 2360 Rocket 2.1 19:33:35 10° NNW 19:39:15 70° ENE 19:44:53 10° SSE
Cosmos 2058 2.9 19:35:40 10° N 19:39:52 85° W 19:44:01 10° S
Cosmos 2098 Rocket 3.7 19:36:54 10° SSE 19:40:37 34° E 19:45:14 10° NNE
NOAA 12 4.2 19:35:37 10° SSE 19:40:54 82° WSW 19:46:16 10° NNW
FengYun 1-2 T 4.3 19:36:04 10° SSE 19:41:24 54° ENE 19:46:45 10° N
Meteor 2-1 Rocket 4.2 19:35:52 10° S 19:41:37 85° E 19:47:32 10° N
COSMO-SKYMED 1 3.8 19:38:55 10° N 19:43:04 45° WNW 19:47:11 10° SW
Cosmos 2219 3.9 19:38:51 10° SSE 19:43:45 30° ESE 19:45:35 25° ENE
RESURS DK-1 2.3 19:40:43 10° NNW 19:44:49 62° ENE 19:47:05 25° SE
Cosmos 2322 Rocket 3.5 19:39:57 10° NW 19:45:11 42° WSW 19:50:26 10° S
Cosmos 1626 3.2 19:43:00 10° NNW 19:46:36 46° W 19:50:11 10° SSW
SL-24 R/B - RUBIN 2 3.7 19:42:55 10° NNW 19:47:47 62° NE 19:49:57 29° SE
Cosmos 1821 Rocket 4.1 19:45:24 10° SSE 19:51:17 51° E 19:57:16 10° NNE
BREEZE-M DEB (TANK) 1.4 19:50:44 10° WSW 19:52:36 60° NW 19:52:36 60° NW
Cosmos 1000 Rocket 4.5 19:47:02 10° N 19:53:13 60° E 19:59:19 10° SSE
USA 267 3.3 19:49:38 19° ENE 19:54:24 59° SE 20:00:48 10° SSW
Cosmos 1452 Rocket 3.4 19:49:07 10° NNW 19:54:24 83° ENE 19:59:39 10° SSE
SL-8 R/B 3.6 19:49:35 10° SW 19:54:25 81° SSE 19:56:27 35° ENE
Lacrosse 5 rocket 4.0 19:52:04 10° NW 19:54:28 14° NNW 19:56:49 10° NNE
SJ-6B 2.7 19:55:11 48° ESE 19:55:45 54° ENE 19:59:24 10° N
Sich 1 4.3 19:55:49 10° NNE 19:58:06 24° NE 19:58:06 24° NE
Cosmos 2239 Rocket 4.4 19:54:18 10° S 20:00:19 61° E 20:06:21 10° NNE
Cosmos 1934 Rocket 4.2 19:54:44 10° SSE 20:00:44 47° E 20:06:47 10° NNE
Cosmos 1805 Rocket 3.6 19:57:49 10° N 20:02:06 52° E 20:02:32 49° ESE
Atlas Centaur 2 3.4 19:57:51 10° WSW 20:02:19 28° S 20:04:35 22° SE
DELTA 2 R/B (1) 3.6 19:58:21 10° W 20:03:56 75° S 20:05:56 41° ESE
Cosmos 2322 3.6 19:58:55 10° NNW 20:04:41 89° ENE 20:09:19 16° SSE
Gbstr 26 Del rocket 4.4 20:04:11 10° NW 20:09:04 40° NNE 20:10:30 34° ENE
ALOS 3.5 20:05:06 10° S 20:09:32 42° W 20:13:59 10° NNW
Spot 2 Rocket 4.3 20:11:22 32° NE 20:11:22 32° NE 20:14:56 10° N
BREEZE M DEB (TANK) 3.4 20:07:30 10° NW 20:10:26 25° N 20:10:26 25° N
CZ-4C R/B 2.4 20:07:58 10° S 20:12:18 42° SE 20:12:18 42° SE
Abrixas rocket 4.1 20:16:13 10° WNW 20:18:42 24° NNW 20:18:42 24° NNW
Cosmos 2123 Rocket 4.0 20:13:15 10° N 20:19:22 55° E 20:20:47 45° ESE
USA 234 3.9 20:28:01 35° NE 20:29:15 38° NNE 20:35:12 10° NW
Cosmos 2219 Rocket 2.5 20:24:29 10° NNW 20:29:16 47° NE 20:29:16 47° NE
Cosmos 1048 Rocket 4.0 20:30:29 10° SSW 20:35:37 75° WNW 20:38:42 24° NNE
Cosmos 2333 4.1 20:34:25 10° NNW 20:40:10 89° WSW 20:40:47 73° SSE
Envisat 3.6 20:46:16 46° N 20:46:16 46° N 20:49:52 10° N
Resurs 01 Rocket 3.1 20:49:59 29° NNW 20:49:59 29° NNW 20:52:13 10° NNW
Cosmos 2237 Rocket 3.5 20:52:35 10° NNW 20:55:41 30° N 20:55:41 30° N
SL-16 R/B 4.3 21:01:29 10° N 21:02:43 15° N 21:02:43 15° N
COSMOS 2428 3.7 21:10:53 10° NW 21:16:12 42° WSW 21:16:20 42° WSW
Cosmos 2333 Rocket 3.2 21:14:19 10° NNW 21:18:02 42° NNW 21:18:02 42° NNW
Cosmos 2219 4.4 21:22:20 10° SW 21:27:40 40° WNW 21:27:40 40° WNW
USA 267 4.0 21:37:02 46° NNW 21:37:16 46° NNW 21:43:26 10° W
